Location: Dammartin
(48.9032°N, 1.6195°E)
Time: 13:24:47
(UTC+00:00)

YUBILEINY - Pass Details

Date: 13 December 2023
Orbit: 1479 x 1508 km, 82.5° (Epoch: 02 March)

Event Time Altitude Azimuth Distance (km) Brightness Sun altitude
Rises 18:42:14 0° 350° (N) 4,626 ? -26.0°
Reaches altitude 10° 18:45:13 10° 354° (N) 3,639 ? -26.5°
Maximum altitude 18:53:51 60° 74° (ENE) 1,664 ? -27.9°
Enters shadow 18:56:40 43° 130° (SE) 1,973 ? -28.4°
Exits shadow 19:04:43 - 157° (SSE) 4,385 ? -29.7°
Sets 19:05:19 0° 158° (SSE) 4,587 ? -29.8°
